Terug naar catalogus

ARIANE 2 DEB

ActiefHEO
NORAD 27626·DEBRIS·🇫🇷 France

Gelanceerd Oct 28, 1988 vanaf Guiana Space Centre

Loading…

Volgende Passages (komende 24 uur)

TLE

VersSource: Space-Track

Epoch: Sep 14, 2026, 14:07 UTC

1 27626U 88098J   26257.58862106 -.00000055  00000-0  00000-0 0  9995
2 27626   4.2706 314.3511 6394412 128.1185 210.7141  2.76073748269802

Volg ARIANE 2 DEB in realtime met AllMySat

Download on the App Store